Regional Weather Roundup
Issued by NWS Albany, NY

Home | Current Version | Previous Version | Text Only | Print | Product List | Glossary On
Versions: 1 2 3 4 5 6 7 8 9 10 11 12 13 14 15 16 17 18 19 20 21 22 23 24 25 26 27 28 29 30 31 32 33 34 35 36 37 38 39 40 41 42 43 44 45 46 47 48 49 50
000
ASUS41 KALY 290010
RWRALY

NEW YORK STATE HOURLY WEATHER ROUNDUP
NATIONAL WEATHER SERVICE ALBANY NY
800 PM EDT THU MAY 28 2015

NOTE: "FAIR" INDICATES FEW OR NO CLOUDS BELOW 12,000 FEET WITH NO
SIGNIFICANT WEATHER AND/OR NO OBSTRUCTIONS TO VISIBILITY.

NYZ032-033-038>043-046>054-057>066-NYZ062>081-290100-
EAST


CITY           SKY/WX    TMP DP  RH WIND       PRES   REMARKS
ALBANY         MOCLDY    70  53  54 NW8       30.23R
GLENS FALLS    CLOUDY    69  53  56 NW15G21   30.22R
POUGHKEEPSIE   CLEAR     79  56  45 N8        30.16R
NEWBURGH       PTCLDY    75  59  57 W12       30.19R
MONTGOMERY     PTCLDY    76  55  48 NW9G17    30.18R
WHITE PLAINS   MOCLDY    73  67  81 S3        30.16R
ISLIP          CLOUDY    68  62  81 CALM      30.15S
NEW YORK CITY  CLOUDY    78  63  59 NE12      30.14R
CENTRAL PARK   CLOUDY    85  53  33 VRB3      30.17R
$$

NYZ005>009-017-018-044>046-055-056-290100-
CENTRAL


CITY           SKY/WX    TMP DP  RH WIND       PRES   REMARKS
FULTON         CLEAR     68  55  63 W3        30.24R
SYRACUSE       PTCLDY    70  54  56 NW3       30.24R
ROME           CLEAR     67  54  63 NW8       30.25R
ELMIRA         CLEAR     70  55  59 N6        30.24R
BINGHAMTON     PTCLDY    65  53  65 N6        30.27R
MONTICELLO     CLEAR     66  54  63 NW8       30.27R
$$

NYZ026>034-041>043-290100-
NORTH


CITY           SKY/WX    TMP DP  RH WIND       PRES   REMARKS
WATERTOWN      CLEAR     64  54  69 S3        30.24R
FORT DRUM      NOT AVBL
MASSENA        CLEAR     68  55  63 CALM      30.21R
SARANAC LAKE   MOCLDY    61  55  81 VRB3      30.23R
PLATTSBURGH    CLOUDY    67  56  67 W3        30.19R
$$

NYZ001>004-010>016-019>021-290100-
WEST


CITY           SKY/WX    TMP DP  RH WIND       PRES   REMARKS
NIAGARA FALLS  PTCLDY    72  54  53 SW5       30.24R
BUFFALO        PTCLDY    74  52  46 W6        30.25R
DUNKIRK        CLEAR     66  57  72 N3        30.25R
JAMESTOWN      CLEAR     70  54  56 NW6       30.29R
WELLSVILLE     CLEAR     69  50  50 CALM      30.30R
ROCHESTER      PTCLDY    74  51  44 NW5       30.25R
PENN YAN       CLEAR     70  54  56 CALM      30.26R
$$

             KEY
       WCI = WIND CHILL INDEX
       VSB = VISIBILITY
       HX  = HEAT INDEX
$$


USA.gov is the U.S. government's official web portal to all federal, state and local government web resources and services.